"Pseudo-MPEC" for P12pEuy

Created 2026 Sep 5 10:35:11 UT using Find_Orb

Click here for an explanation of pseudo-MPECs

 
 Astrometry: 
     P12pEuy*0C2026 09 05.23990019 37 40.584-24 13 30.17   ~957o 21.93wXNEOCPF51
     P12pEuy 0C2026 09 05.24384719 37 40.926-24 13 32.15   ~957o 21.77wXNEOCPF51
     P12pEuy 0C2026 09 05.24779319 37 41.244-24 13 34.28   ~957o 21.60wXNEOCPF51

Station data:
(F51) Pan-STARRS 1, Haleakala  (N20.707234 W156.255910)  US/Hawaii.
   Observers J. Herman, T. Lowe, P. Minguez, A. Schultz, I. Smith. Measurers
   K. Chambers, T. de Boer, J. Fairlamb, H. Gao, M. Huber, C.-C. Lin, E.
   Magnier, Y. Ramanjooloo, R. Wainscoat, R. Weryk. 1.8-m Ritchey-Chrétien +
   CCD.

Orbital elements:  P12pEuy
   Perihelion 2026 Jul 21.579410 +/- 47.2 TT = 13:54:21.0 (JD 2461243.079410)
Epoch 2026 Sep  5.0 TT = JDT 2461288.5   Earth MOID: 0.0204   Ju: 0.6848
M   7.139985612 +/- 43              Ve: 0.0904   Ma: 0.0147      AutoNEOCP
n   0.157197111 +/- 0.345           Peri.   18.138478 +/- 80
a   3.400214703 +/- 4.98            Node   147.466492 +/- 13
e   0.98967956 +/- 0.268            Incl.   43.567285 +/- 37
P   6.26988                H 21.49  G  0.15   U 12.0  SR
q 0.035091696 +/- 0.582    Q 6.765337710 +/- 34.6         (J2000 ecliptic)
From 3 observations 2026 Sept. 5 (11.4 min); mean residual 0".06
Residuals in arcseconds: 
260905 F51  .05-  .03-    260905 F51  .11+  .05+    260905 F51  .05-  .03-    

Ephemerides (geocentric):
Date (UTC) HH   RA             Dec           delta  r     elong  mag " sig PA
---- --------  ------------   ------------  ------ ------ -----  --- --------
2026 09 05 11  19 38 00.081   -24 15 04.20  .41931 1.3160 129.6 21.7  198 137
2026 09 05 12  19 38 03.856   -24 15 24.48  .42044 1.3168 129.6 21.7  217 132
2026 09 05 13  19 38 07.619   -24 15 44.62  .42156 1.3176 129.6 21.7  236 128
2026 09 05 14  19 38 11.369   -24 16 04.63  .42269 1.3184 129.6 21.7  253 125
2026 09 05 15  19 38 15.108   -24 16 24.50  .42381 1.3191 129.5 21.7  270 123
2026 09 05 16  19 38 18.834   -24 16 44.24  .42494 1.3199 129.5 21.7  286 121
2026 09 05 17  19 38 22.549   -24 17 03.85  .42606 1.3207 129.5 21.7  301 120
2026 09 05 18  19 38 26.251   -24 17 23.33  .42719 1.3215 129.5 21.7  315 119
2026 09 05 19  19 38 29.942   -24 17 42.68  .42832 1.3223 129.4 21.7  329 118
2026 09 05 20  19 38 33.622   -24 18 01.90  .42944 1.3230 129.4 21.7  342 117
2026 09 05 21  19 38 37.289   -24 18 20.99  .43057 1.3238 129.4 21.7  355 116
2026 09 05 22  19 38 40.946   -24 18 39.96  .43169 1.3246 129.3 21.7  367 116
2026 09 05 23  19 38 44.591   -24 18 58.80  .43282 1.3254 129.3 21.8  378 115
2026 09 06 00  19 38 48.225   -24 19 17.52  .43395 1.3261 129.3 21.8  390 114
2026 09 06 01  19 38 51.848   -24 19 36.12  .43507 1.3269 129.3 21.8  401 114
2026 09 06 02  19 38 55.460   -24 19 54.59  .43620 1.3277 129.2 21.8  411 114
2026 09 06 03  19 38 59.061   -24 20 12.94  .43733 1.3285 129.2 21.8  422 113
2026 09 06 04  19 39 02.651   -24 20 31.17  .43845 1.3292 129.2 21.8  432 113
2026 09 06 05  19 39 06.230   -24 20 49.28  .43958 1.3300 129.1 21.8  442 112
2026 09 06 06  19 39 09.799   -24 21 07.27  .44071 1.3308 129.1 21.8  452 112
2026 09 06 07  19 39 13.357   -24 21 25.14  .44183 1.3316 129.1 21.8  462 112
2026 09 06 08  19 39 16.905   -24 21 42.90  .44296 1.3323 129.1 21.8  472 111
2026 09 06 09  19 39 20.442   -24 22 00.53  .44409 1.3331 129.0 21.8  482 111
2026 09 06 10  19 39 23.970   -24 22 18.06  .44521 1.3339 129.0 21.8  491 111
2026 09 06 11  19 39 27.487   -24 22 35.46  .44634 1.3347 129.0 21.8  501 110
2026 09 06 12  19 39 30.994   -24 22 52.76  .44747 1.3354 129.0 21.8  511 110
2026 09 06 13  19 39 34.490   -24 23 09.94  .44860 1.3362 128.9 21.8  521 110
2026 09 06 14  19 39 37.977   -24 23 27.01  .44973 1.3370 128.9 21.9  531 109
2026 09 06 15  19 39 41.455   -24 23 43.96  .45085 1.3378 128.9 21.9  540 109
2026 09 06 16  19 39 44.922   -24 24 00.81  .45198 1.3385 128.8 21.9  550 109
2026 09 06 17  19 39 48.380   -24 24 17.54  .45311 1.3393 128.8 21.9  560 108
2026 09 06 18  19 39 51.828   -24 24 34.17  .45424 1.3401 128.8 21.9  570 108
2026 09 06 19  19 39 55.266   -24 24 50.68  .45537 1.3408 128.8 21.9  581 107
2026 09 06 20  19 39 58.696   -24 25 07.09  .45649 1.3416 128.7 21.9  591 107
2026 09 06 21  19 40 02.116   -24 25 23.40  .45762 1.3424 128.7 21.9  601 107
2026 09 06 22  19 40 05.526   -24 25 39.59  .45875 1.3432 128.7 21.9  612 106
2026 09 06 23  19 40 08.928   -24 25 55.68  .45988 1.3439 128.6 21.9  623 106
2026 09 07 00  19 40 12.320   -24 26 11.67  .46101 1.3447 128.6 21.9  633 105
2026 09 07 01  19 40 15.703   -24 26 27.55  .46214 1.3455 128.6 21.9  644 105
2026 09 07 02  19 40 19.078   -24 26 43.33  .46327 1.3462 128.6 21.9  656 104
2026 09 07 03  19 40 22.443   -24 26 59.00  .46440 1.3470 128.5 21.9  667 104
2026 09 07 04  19 40 25.800   -24 27 14.57  .46553 1.3478 128.5 21.9  678 104
2026 09 07 05  19 40 29.148   -24 27 30.05  .46666 1.3485 128.5 21.9  690 103
2026 09 07 06  19 40 32.487   -24 27 45.42  .46779 1.3493 128.4 22.0  702 103
2026 09 07 07  19 40 35.818   -24 28 00.69  .46892 1.3501 128.4 22.0  714 102
2026 09 07 08  19 40 39.140   -24 28 15.86  .47005 1.3509 128.4 22.0  726 102
2026 09 07 09  19 40 42.454   -24 28 30.93  .47118 1.3516 128.3 22.0  739 101
2026 09 07 10  19 40 45.759   -24 28 45.91  .47231 1.3524 128.3 22.0  752 101